Tracking 26321 objects as of 28-Nov-2022
HD Live streaming from Space Station
objects crossing your sky now

COSMOS 1408 DEB

Track COSMOS 1408 DEB now!
10-day predictions


NORAD ID: 50085
Int'l Code: 1982-092TZ
Perigee: 381.8 km
Apogee: 447.6 km
Inclination: 82.4 °
Period: 92.7 minutes
Semi major axis: 6785 km
RCS: Unknown
Launch date: September 16, 1982
Source: Commonwealth of Independent States (former USSR) (CIS)
Launch site: PLESETSK MISSILE AND SPACE COMPLEX (PKMTR)

Note: This is SATELLITE DEBRIS
aabbcc
Your satellite tracking list
Your tracking list is empty




NASA's NSSDC Master Catalog

Two Line Element Set (TLE):
1 50085U 82092TZ  22331.42681116  .00219839  00000-0  32585-2 0  9996
2 50085  82.4463 105.3596 0048462 237.0597 122.5991 15.53139304 55714
Source of the keplerian elements: AFSPC